Simultaneous Nadir Overpasses (SNOs) Predictions

Prediction of SNOs between NOAA-19 and TERRA Satellite Orbit:

Table of predicted SNOs for the next 14.0 days since TLE Epoch: 10/25/2014
Index Date (NOAA-19) Time (NOAA-19) Lat,Lon (NOAA-19) SZA (NOAA-19 ) Date (TERRA) Time (TERRA) Lat,Lon (TERRA) SZA (TERRA ) Distance(km) Time Diff (sec)
1 10/25/2014 02:44:39 71.02, 141.13 83.06 10/25/2014 02:44:03 70.99, 141.13 83.02 3.59 36
2 10/27/2014 06:37:31 -71.83, -98.47 95.44 10/27/2014 06:38:39 -71.73, -96.37 95.46 73.85 68
3 10/27/2014 07:28:22 71.07, 70.15 83.86 10/27/2014 07:28:17 71.04, 70.15 83.83 2.58 5
4 10/27/2014 08:19:05 -70.33,-121.34 96.83 10/27/2014 08:17:56 -70.43,-123.14 96.80 68.42 69
5 10/29/2014 12:12:05 71.13, -0.85 84.65 10/29/2014 12:12:30 71.13, -0.78 84.65 2.68 25
6 10/29/2014 13:03:00 -70.98, 166.67 95.48 10/29/2014 13:02:01 -70.96, 166.59 95.52 3.64 59
7 10/31/2014 16:55:47 71.15, -71.79 85.40 10/31/2014 16:56:44 71.13, -71.83 85.38 2.73 57
8 10/31/2014 17:46:43 -71.03, 95.69 94.72 10/31/2014 17:46:14 -71.02, 95.62 94.73 2.37 29
9 11/02/2014 21:39:40 71.76,-143.80 86.67 11/02/2014 21:40:48 71.66,-142.04 86.63 62.64 68
10 11/02/2014 22:30:26 -71.09, 24.69 93.96 11/02/2014 22:30:26 -71.11, 24.71 93.94 2.93 0
11 11/02/2014 23:21:13 70.19,-166.58 85.22 11/02/2014 23:20:07 70.24,-168.97 85.16 89.85 66
12 11/05/2014 03:14:08 -71.11, -46.25 93.26 11/05/2014 03:14:39 -71.12, -46.33 93.25 3.13 31
13 11/05/2014 04:05:10 71.03, 121.12
